Temp
-6 -6 -6 -6 -6 -6 -7 -6 -7 -8 -9 -8 -8 -8 -8 -8 -8 -8 -8 -8 -8 -8 -7 -7 -7 -6 -6 -6 -6 -6 -7 -7 -6 -7 -8 -7 -6 -7 -7 -7 -7 -7 -7
-6 -6 -6 -6 -6 -6 -6 -6 -6 -7 -8 -8 -8 -8 -8 -8 -8 -8 -8 -9 -8 -8 -8 -7 -7 -7 -6 -6 -8 -7 -7 -7 -7 -7 -7 -7 -7 -7 -7 -7 -7 -7 -7
-6 -6 -6 -6 -6 -6 -6 -6 -6 -6 -7 -7 -8 -8 -8 -8 -8 -8 -8 -8 -9 -9 -8 -8 -8 -7 -7 -7 -8 -8 -8 -8 -8 -8 -8 -7 -7 -6 -7 -7 -7 -7 -7
-6 -6 -6 -6 -6 -7 -7 -7 -7 -7 -7 -7 -7 -8 -8 -8 -8 -8 -8 -9 -9 -9 -9 -9 -9 -8 -8 -8 -8 -8 -9 -9 -8 -8 -8 -7 -7 -7 -7 -7 -7 -7 -7
-6 -6 -6 -6 -6 -6 -7 -7 -7 -7 -7 -7 -7 -7 -8 -8 -8 -8 -8 -8 -8 -9 -9 -9 -9 -9 -8 -8 -8 -8 -8 -8 -8 -8 -8 -8 -7 -7 -7 -7 -7 -7 -7
-7 -7 -7 -7 -7 -7 -7 -7 -7 -7 -7 -7 -7 -7 -7 -7 -7 -8 -8 -8 -8 -8 -9 -9 -9 -9 -9 -9 -8 -8 -7 -7 -8 -7 -7 -7 -7 -8 -8 -7 -7 -7 -7
-7 -7 -7 -7 -7 -7 -7 -7 -7 -7 -7 -7 -7 -7 -7 -7 -7 -7 -7 -7 -7 -8 -8 -8 -8 -9 -9 -9 -8 -8 -8 -8 -8 -8 -7 -7 -7 -7 -7 -7 -7 -7 -7
-7 -7 -8 -7 -8 -8 -7 -7 -7 -7 -7 -7 -7 -7 -7 -7 -7 -7 -7 -7 -7 -7 -7 -8 -8 -9 -9 -8 -9 -9 -8 -8 -8 -8 -8 -8 -7 -7 -7 -8 -7 -7 -7
-7 -8 -8 -8 -8 -8 -8 -8 -7 -8 -7 -7 -8 -8 -8 -8 -7 -7 -7 -7 -7 -7 -7 -7 -8 -8 -8 -8 -8 -8 -8 -8 -8 -8 -8 -8 -8 -8 -8 -8 -7 -7 -7
-7 -7 -8 -8 -8 -8 -8 -8 -8 -8 -7 -6 -8 -9 -8 -8 -8 -8 -8 -7 -7 -7 -7 -7 -7 -8 -8 -8 -8 -8 -8 -9 -8 -8 -8 -8 -8 -8 -8 -8 -8 -7 -7
-8 -8 -8 -8 -9 -9 -10 -9 -8 -8 -7 -7 -8 -8 -8 -8 -8 -8 -8 -8 -7 -7 -7 -7 -7 -7 -7 -8 -8 -8 -9 -9 -8 -8 -8 -8 -8 -8 -8 -8 -8 -8 -7
-8 -8 -8 -9 -9 -9 -9 -9 -9 -8 -8 -8 -8 -8 -8 -8 -8 -7 -8 -8 -8 -7 -7 -7 -7 -7 -7 -8 -8 -9 -9 -9 -9 -9 -9 -8 -9 -8 -8 -8 -8 -8 -8
-8 -8 -8 -9 -9 -9 -9 -9 -9 -9 -8 -8 -8 -8 -9 -9 -9 -8 -8 -8 -8 -8 -8 -7 -7 -7 -8 -8 -8 -8 -9 -9 -9 -9 -9 -9 -9 -9 -9 -8 -9 -9 -8
-9 -9 -9 -9 -10 -10 -9 -9 -9 -9 -9 -9 -9 -9 -9 -9 -9 -10 -9 -9 -8 -8 -8 -8 -8 -8 -8 -8 -8 -8 -9 -9 -9 -9 -9 -9 -9 -9 -9 -9 -8 -9 -9
-9 -8 -10 -11 -10 -10 -9 -10 -11 -11 -12 -11 -11 -11 -10 -10 -10 -10 -9 -9 -9 -9 -9 -8 -8 -8 -8 -8 -8 -8 -9 -9 -9 -9 -9 -9 -9 -9 -9 -9 -8 -9 -8
-9 -11 -10 -10 -10 -11 -11 -11 -12 -12 -12 -12 -12 -12 -12 -11 -11 -11 -11 -11 -10 -10 -10 -9 -9 -9 -8 -8 -8 -8 -9 -9 -9 -9 -9 -9 -9 -9 -9 -9 -9 -8 -8
-10 -10 -12 -11 -12 -12 -12 -12 -12 -12 -12 -12 -12 -12 -12 -12 -12 -12 -11 -11 -11 -11 -11 -11 -10 -9 -9 -9 -9 -9 -9 -9 -9 -9 -9 -9 -9 -9 -9 -9 -9 -8 -8
-11 -11 -11 -11 -12 -12 -12 -12 -12 -12 -12 -12 -12 -12 -12 -12 -11 -12 -12 -12 -11 -12 -11 -11 -11 -10 -10 -9 -9 -9 -9 -9 -9 -9 -9 -9 -9 -9 -9 -9 -9 -9 -9
-11 -11 -11 -11 -11 -11 -12 -12 -12 -12 -12 -12 -12 -12 -12 -11 -12 -12 -12 -12 -12 -12 -12 -12 -11 -11 -10 -10 -10 -9 -9 -9 -9 -9 -9 -9 -9 -9 -9 -9 -9 -9 -9
-11 -11 -11 -11 -11 -12 -12 -12 -12 -12 -12 -12 -12 -12 -12 -12 -12 -12 -12 -12 -12 -11 -11 -11 -11 -11 -11 -11 -10 -10 -10 -9 -10 -9 -9 -9 -9 -9 -9 -9 -9 -10 -9
-12 -12 -12 -12 -12 -12 -12 -12 -12 -12 -12 -12 -12 -12 -12 -12 -12 -12 -12 -13 -12 -12 -11 -11 -11 -11 -10 -10 -10 -10 -10 -10 -9 -9 -9 -9 -9 -9 -9 -9 -9 -9 -9
-12 -12 -12 -13 -13 -13 -13 -13 -13 -12 -12 -12 -12 -12 -12 -12 -12 -12 -12 -12 -12 -12 -11 -11 -11 -11 -11 -11 -11 -11 -10 -10 -10 -10 -10 -10 -10 -11 -11 -11 -11 -10 -9
-12 -12 -13 -13 -14 -13 -13 -13 -13 -12 -12 -12 -12 -12 -12 -12 -12 -12 -12 -12 -12 -11 -11 -11 -11 -11 -11 -11 -11 -11 -11 -11 -11 -10 -10 -11 -10 -11 -11 -11 -10 -11 -10
-12 -12 -13 -13 -14 -13 -13 -13 -13 -12 -12 -12 -12 -12 -12 -12 -12 -12 -12 -12 -12 -11 -11 -11 -11 -11 -11 -11 -11 -11 -12 -12 -11 -10 -11 -11 -10 -11 -11 -11 -11 -11 -11
-12 -12 -13 -13 -13 -13 -13 -13 -13 -13 -13 -13 -12 -12 -12 -13 -13 -13 -12 -11 -11 -11 -11 -11 -12 -12 -11 -11 -11 -12 -12 -12 -12 -12 -12 -11 -11 -11 -11 -11 -11 -12 -12
-12 -12 -12 -13 -13 -13 -13 -13 -13 -13 -13 -13 -12 -13 -13 -13 -12 -13 -12 -12 -12 -12 -12 -12 -12 -12 -12 -12 -13 -12 -12 -12 -12 -12 -12 -12 -12 -12 -12 -12 -11 -12 -12
Height
5947 5945 5943 5941 5938 5935 5932 5930 5927 5928 5929 5931 5929 5927 5924 5921 5918 5915 5913 5910 5908 5905 5902 5899 5897 5894 5891 5887 5885 5883 5883 5882 5880 5877 5882 5885 5884 5883 5884 5884 5885 5884 5885
5947 5945 5942 5940 5938 5936 5934 5931 5928 5928 5928 5927 5924 5922 5920 5918 5915 5912 5909 5906 5903 5900 5897 5893 5891 5889 5886 5883 5881 5880 5879 5878 5877 5874 5876 5877 5876 5876 5875 5876 5877 5876 5876
5945 5943 5942 5941 5939 5937 5934 5931 5928 5926 5923 5921 5919 5917 5914 5912 5910 5906 5904 5902 5899 5896 5893 5889 5887 5885 5883 5880 5877 5875 5874 5873 5871 5871 5871 5872 5871 5869 5868 5868 5870 5870 5868
5943 5941 5940 5937 5936 5933 5930 5928 5926 5924 5922 5919 5915 5912 5910 5907 5904 5902 5898 5895 5893 5890 5889 5886 5883 5881 5879 5877 5875 5873 5871 5869 5868 5866 5865 5864 5865 5863 5863 5862 5863 5862 5860
5941 5939 5937 5935 5932 5929 5927 5925 5922 5920 5918 5915 5911 5908 5906 5901 5898 5896 5894 5890 5888 5885 5883 5880 5879 5877 5875 5873 5871 5869 5868 5866 5865 5863 5860 5859 5857 5857 5857 5856 5855 5854 5855
5937 5936 5934 5932 5930 5927 5925 5922 5917 5914 5911 5909 5906 5902 5898 5895 5893 5891 5887 5884 5881 5878 5875 5873 5873 5872 5870 5867 5866 5865 5863 5861 5858 5856 5854 5853 5852 5852 5851 5851 5851 5850 5850
5933 5931 5930 5928 5926 5923 5919 5917 5914 5911 5907 5904 5900 5897 5893 5888 5885 5883 5880 5876 5875 5871 5868 5867 5864 5863 5862 5861 5859 5858 5857 5855 5854 5851 5849 5848 5847 5846 5845 5845 5845 5844 5844
5928 5926 5924 5921 5919 5916 5912 5908 5905 5901 5898 5895 5892 5889 5886 5882 5880 5875 5872 5869 5866 5863 5862 5859 5857 5855 5853 5853 5853 5852 5850 5849 5846 5845 5844 5843 5842 5841 5839 5839 5838 5838 5836
5920 5918 5916 5914 5911 5907 5904 5901 5897 5892 5888 5884 5881 5879 5875 5872 5869 5867 5863 5860 5858 5855 5852 5851 5849 5846 5844 5843 5843 5843 5842 5841 5839 5838 5837 5836 5836 5835 5834 5833 5832 5832 5829
5910 5908 5906 5903 5901 5898 5894 5891 5887 5884 5879 5874 5870 5867 5865 5864 5859 5856 5854 5849 5847 5845 5843 5841 5839 5836 5834 5834 5833 5833 5834 5832 5830 5829 5829 5828 5828 5828 5828 5826 5825 5824 5822
5900 5897 5895 5893 5890 5887 5884 5879 5876 5874 5870 5866 5861 5857 5855 5852 5850 5846 5842 5839 5836 5833 5832 5830 5827 5826 5825 5824 5823 5822 5823 5822 5821 5819 5819 5819 5818 5819 5820 5819 5818 5817 5816
5888 5886 5882 5878 5875 5872 5872 5869 5864 5860 5856 5853 5850 5846 5841 5837 5836 5834 5830 5827 5823 5820 5819 5817 5815 5813 5811 5811 5812 5811 5810 5809 5809 5809 5808 5808 5808 5807 5809 5811 5810 5809 5808
5873 5871 5870 5867 5865 5863 5857 5854 5851 5847 5842 5838 5834 5830 5826 5823 5820 5816 5815 5812 5810 5807 5805 5803 5803 5801 5798 5797 5797 5797 5797 5796 5795 5795 5795 5796 5796 5797 5797 5798 5801 5800 5801
5855 5856 5853 5851 5849 5846 5843 5837 5832 5831 5826 5820 5815 5812 5808 5804 5800 5796 5795 5793 5792 5791 5789 5789 5787 5786 5784 5783 5782 5782 5782 5781 5781 5781 5782 5783 5784 5785 5785 5786 5790 5790 5791
5844 5842 5842 5837 5831 5824 5822 5817 5814 5810 5806 5801 5795 5790 5787 5785 5780 5776 5774 5773 5771 5771 5769 5768 5769 5768 5767 5767 5767 5767 5766 5767 5767 5767 5767 5769 5770 5772 5773 5773 5775 5780 5780
5836 5833 5822 5817 5813 5807 5802 5797 5792 5789 5785 5781 5777 5769 5766 5763 5760 5757 5755 5753 5751 5749 5749 5748 5748 5747 5747 5748 5749 5749 5750 5751 5752 5753 5753 5755 5756 5758 5760 5761 5762 5766 5770
5814 5810 5803 5802 5796 5788 5783 5779 5775 5771 5765 5762 5758 5753 5749 5746 5742 5740 5736 5733 5732 5729 5729 5727 5727 5726 5727 5728 5729 5730 5732 5733 5735 5737 5738 5741 5742 5744 5746 5749 5750 5752 5756
5801 5795 5792 5785 5779 5774 5768 5763 5759 5754 5749 5745 5741 5736 5732 5728 5727 5721 5716 5714 5712 5708 5707 5707 5706 5706 5707 5708 5709 5711 5713 5715 5717 5720 5722 5724 5726 5730 5731 5734 5736 5739 5743
5789 5783 5778 5773 5766 5761 5755 5750 5745 5739 5734 5730 5726 5721 5713 5710 5707 5702 5697 5693 5691 5689 5687 5686 5685 5686 5687 5688 5689 5692 5694 5697 5700 5702 5705 5708 5709 5711 5715 5719 5720 5724 5728
5774 5769 5764 5758 5753 5747 5742 5736 5731 5726 5720 5715 5710 5705 5698 5694 5690 5685 5678 5672 5669 5667 5666 5665 5666 5666 5667 5667 5669 5671 5675 5678 5682 5684 5686 5689 5691 5693 5696 5700 5705 5707 5710
5761 5755 5749 5743 5737 5733 5728 5723 5717 5711 5707 5703 5697 5691 5685 5679 5675 5669 5663 5657 5652 5648 5646 5645 5645 5646 5646 5646 5648 5649 5652 5658 5661 5665 5668 5670 5673 5674 5678 5682 5685 5691 5695
5748 5741 5734 5728 5722 5717 5713 5708 5703 5699 5695 5691 5686 5680 5673 5668 5663 5658 5651 5645 5639 5634 5631 5629 5627 5626 5626 5625 5626 5628 5631 5635 5639 5644 5650 5653 5657 5659 5662 5666 5669 5673 5678
5735 5727 5719 5711 5705 5702 5699 5694 5690 5688 5684 5680 5675 5671 5665 5660 5654 5647 5639 5632 5626 5621 5617 5614 5612 5611 5609 5608 5608 5611 5614 5618 5622 5628 5634 5640 5641 5644 5646 5649 5655 5659 5663
5722 5713 5704 5695 5688 5685 5684 5682 5680 5677 5674 5670 5667 5663 5659 5654 5646 5637 5628 5621 5615 5610 5607 5604 5601 5599 5597 5595 5594 5595 5599 5603 5608 5614 5620 5627 5628 5633 5637 5637 5636 5641 5646
5711 5702 5692 5685 5679 5675 5672 5671 5671 5670 5667 5665 5661 5658 5653 5648 5641 5633 5625 5618 5613 5608 5604 5601 5596 5592 5589 5586 5585 5588 5591 5595 5600 5607 5612 5617 5621 5623 5627 5627 5619 5627 5630
5703 5693 5684 5675 5671 5668 5666 5666 5665 5664 5663 5660 5656 5653 5648 5644 5638 5633 5626 5619 5614 5608 5603 5600 5597 5594 5592 5590 5590 5591 5592 5595 5598 5602 5605 5609 5612 5614 5617 5620 5623 5626 5626
Wind_Speed
7 8 10 12 15 16 17 7 2 6 11 16 17 19 19 20 22 24 23 25 28 30 31 31 29 25 21 16 17 22 24 25 15 18 23 20 26 25 26 25 21 23 19
6 8 10 11 12 13 12 11 8 7 10 15 19 22 22 23 24 26 25 23 27 28 28 29 29 25 23 23 19 23 21 21 23 20 22 18 24 30 32 29 31 24 22
10 12 12 12 12 12 13 13 12 13 15 17 20 23 25 28 28 29 30 28 27 26 26 26 26 26 23 22 21 20 20 19 20 20 22 20 21 20 24 25 26 22 25
11 13 17 17 17 18 19 18 17 17 18 20 22 23 26 29 29 28 30 30 30 28 27 24 24 24 22 22 21 21 19 19 19 19 21 19 18 18 21 25 29 28 30
13 15 21 24 24 22 21 21 22 23 22 23 25 26 26 27 29 31 30 30 31 31 28 26 23 25 22 20 20 20 20 22 24 23 24 23 25 24 22 21 22 24 23
15 17 19 21 25 27 28 27 27 27 28 30 29 29 29 30 29 30 31 30 31 30 29 30 27 25 25 24 24 23 23 24 24 24 25 24 25 25 24 22 24 20 20
21 22 28 27 29 30 29 31 33 34 34 32 33 33 33 34 33 32 32 33 33 32 31 32 31 29 25 27 28 27 26 26 26 26 25 24 24 25 25 27 25 28 25
25 23 27 30 33 37 35 34 36 36 37 39 39 36 36 37 36 35 35 35 34 33 33 33 34 34 32 30 30 30 28 27 28 28 27 26 25 25 25 26 27 28 27
35 34 34 35 37 40 38 38 38 36 38 44 43 41 39 39 39 37 38 38 38 35 34 34 35 35 37 36 32 31 31 31 31 30 29 28 26 26 27 27 25 25 27
44 43 43 44 43 43 44 44 41 41 39 41 44 44 43 42 42 41 41 41 40 41 39 36 36 38 40 38 38 35 32 34 35 34 31 30 30 28 27 28 28 26 25
51 50 46 50 50 45 44 47 40 41 41 39 39 42 43 46 45 45 45 44 43 43 43 42 40 41 40 40 41 41 39 37 36 37 36 34 34 32 30 29 29 29 24
55 56 57 58 59 55 50 49 39 45 48 47 44 43 46 48 49 48 47 47 45 44 45 45 45 44 44 44 41 42 42 42 40 39 39 38 37 38 35 32 31 30 29
63 63 61 64 64 63 54 51 47 47 49 52 51 49 50 54 57 56 55 52 52 49 49 49 48 46 49 47 46 45 44 43 44 43 41 40 39 40 40 38 33 33 29
59 63 70 69 68 58 57 53 49 52 53 54 53 55 56 54 57 57 60 63 63 61 56 56 55 50 47 48 48 48 48 47 46 45 45 42 41 41 43 42 36 35 33
66 73 74 66 63 57 58 54 51 54 58 59 60 61 62 64 66 64 62 62 61 62 58 56 57 56 53 50 50 51 51 50 49 47 46 44 43 41 42 42 40 36 35
74 64 62 65 65 60 59 60 61 62 61 59 63 62 60 59 62 63 61 58 59 62 62 60 58 59 58 56 54 52 52 51 51 48 49 46 45 44 42 43 42 38 37
70 61 55 58 59 60 61 61 61 60 59 56 54 54 55 56 57 58 58 57 57 56 53 53 54 57 57 58 56 55 54 52 53 51 50 48 48 48 47 45 45 43 39
61 58 59 58 58 56 54 53 52 52 51 51 54 56 57 57 55 55 56 57 55 56 55 56 54 53 54 56 57 58 54 54 53 53 51 52 50 50 51 50 49 47 44
57 57 53 52 52 51 51 50 50 50 51 53 54 55 58 56 54 54 56 57 57 56 56 55 56 56 55 55 55 56 58 56 55 55 54 54 55 54 53 53 53 52 49
53 54 54 53 53 53 52 51 51 51 50 50 50 50 50 49 49 50 52 53 54 55 55 56 55 56 56 56 57 57 56 56 55 55 57 57 59 58 57 57 56 55 54
53 55 55 54 52 51 50 50 51 53 52 48 45 47 50 51 47 46 44 45 45 44 45 48 51 54 56 58 60 61 60 58 57 57 57 59 56 57 57 56 57 58 56
51 53 56 56 55 52 50 46 46 43 42 45 46 41 42 42 39 40 42 43 44 44 44 44 44 45 46 49 51 52 54 54 54 54 51 51 50 51 52 52 52 51 54
52 55 57 57 54 50 42 42 42 40 41 39 35 35 33 36 39 41 42 41 41 41 38 36 37 38 39 39 41 43 44 45 46 44 43 44 45 44 46 49 51 48 47
49 48 47 46 42 35 36 38 36 31 30 28 26 29 30 32 32 36 34 28 27 24 22 23 27 29 28 28 29 33 34 34 36 38 34 35 37 40 35 35 43 42 47
45 49 50 43 34 31 31 30 27 23 20 20 22 21 22 23 23 29 27 24 17 12 14 20 18 16 17 14 9 10 13 17 20 23 27 26 30 32 31 35 26 32 49
42 35 32 26 25 20 14 13 15 13 16 18 15 17 16 18 19 24 22 21 21 19 16 13 11 9 6 4 2 6 9 12 16 21 23 24 24 25 24 24 25 31 36
Wind_Direction
24 16 9 6 1 0 359 337 338 248 262 293 303 310 311 309 309 311 310 310 307 306 304 309 315 321 322 306 304 292 295 290 279 280 266 272 278 280 275 274 282 264 260
32 16 10 1 1 352 346 342 350 325 303 301 307 311 312 313 314 313 311 310 306 310 308 308 313 317 324 314 303 292 289 283 290 297 289 289 290 279 274 274 279 260 259
357 2 360 353 351 337 331 334 336 330 318 311 301 303 305 307 309 310 312 315 313 307 307 312 314 314 317 318 320 307 301 295 294 293 290 286 289 288 274 276 277 263 276
334 343 337 331 328 327 329 332 330 324 315 308 307 306 302 301 302 307 308 311 308 308 303 302 307 311 312 311 309 311 307 300 291 286 285 289 290 285 286 285 281 276 268
305 310 318 317 313 308 308 310 312 314 313 311 310 310 308 304 302 302 302 307 304 303 300 302 299 301 303 301 302 304 304 298 291 287 285 288 292 293 296 302 286 281 282
296 307 328 324 317 311 305 303 303 304 306 307 309 308 306 307 309 308 304 302 305 303 300 299 300 295 293 297 296 294 296 297 301 300 298 297 294 293 292 294 293 291 278
290 317 321 318 324 312 305 305 299 297 296 293 295 299 303 304 305 305 305 306 303 305 301 295 296 296 289 291 289 290 291 291 291 293 296 299 295 296 296 295 294 293 294
292 305 313 313 305 322 314 296 298 293 290 292 291 289 292 295 299 301 302 302 303 303 299 296 293 293 292 288 285 287 288 286 286 288 290 292 293 297 296 297 298 297 292
292 295 298 306 301 314 317 311 314 299 300 296 286 286 286 289 293 295 297 297 298 299 297 295 292 288 288 287 284 282 283 285 282 281 284 286 289 291 292 293 293 299 292
286 287 292 296 302 301 310 310 299 301 302 304 288 284 287 287 287 291 292 290 292 293 293 293 289 287 287 286 287 284 280 280 280 282 280 281 282 283 285 290 295 295 304
287 288 293 290 294 294 301 307 288 293 295 293 295 280 280 283 284 286 288 288 288 288 290 291 288 288 283 282 282 282 284 281 280 280 280 281 281 281 281 281 284 287 292
281 283 283 286 288 295 302 301 297 296 297 293 287 284 281 276 277 279 282 283 284 287 289 289 287 284 282 282 280 279 278 277 278 278 277 277 278 281 278 278 281 282 285
279 282 289 291 297 294 302 300 293 293 290 286 285 281 278 278 278 277 277 275 278 280 285 287 287 283 280 278 277 278 277 275 275 275 276 274 275 277 277 277 277 279 277
274 284 287 290 295 301 299 292 293 291 289 286 283 282 282 283 280 278 277 274 275 276 277 279 285 282 277 274 274 274 275 275 274 273 273 272 271 270 272 273 272 274 272
285 287 294 299 302 304 299 297 290 283 286 288 287 284 282 282 281 280 278 277 279 280 277 275 274 277 275 274 272 271 271 272 273 273 272 272 269 267 268 269 269 267 269
281 297 297 301 301 300 299 297 296 293 289 287 287 289 287 285 283 283 285 285 285 282 277 275 274 273 274 273 271 268 267 269 269 267 269 269 270 269 266 267 268 263 263
303 304 301 298 298 298 296 295 292 290 291 291 290 289 288 288 287 287 285 284 282 278 276 275 275 274 273 272 271 269 267 265 266 265 265 264 267 267 267 266 266 265 262
300 301 300 303 302 300 299 298 296 294 293 293 292 290 288 286 285 284 284 283 279 280 281 276 271 269 268 269 269 270 266 264 264 263 263 264 263 263 265 265 265 266 266
296 297 299 299 299 300 300 300 299 297 295 294 292 290 290 292 291 288 285 282 278 277 276 274 274 271 267 265 264 264 263 261 260 261 261 263 264 263 261 261 263 262 262
295 296 296 296 297 297 297 297 296 295 295 295 296 296 296 295 294 292 289 288 283 278 275 272 272 271 270 269 268 265 263 261 264 265 264 263 263 263 262 260 258 259 261
296 296 297 297 297 296 295 295 294 293 295 298 297 298 297 298 299 299 295 292 291 288 283 277 272 270 268 267 265 265 264 263 263 262 262 262 261 262 262 261 259 256 256
297 297 297 296 293 292 293 295 292 295 295 295 299 300 300 300 301 301 299 296 293 290 287 284 280 275 271 267 264 261 260 260 259 260 259 258 258 258 259 262 263 261 256
301 302 301 298 292 289 290 288 292 292 294 298 299 298 300 305 305 304 302 300 297 294 291 286 282 280 278 273 266 260 257 256 255 253 254 259 260 261 266 260 256 258 260
306 307 309 310 300 288 286 289 292 293 299 301 302 304 307 310 316 320 318 316 319 313 305 300 297 292 284 277 268 258 256 249 246 245 244 232 233 261 264 260 254 248 242
313 311 307 303 303 298 295 291 288 293 297 302 307 311 318 331 344 357 351 341 336 332 321 318 319 314 307 295 254 227 213 213 208 210 216 231 247 255 255 251 244 235 239
319 322 334 323 306 309 303 286 293 294 296 308 314 327 332 342 349 351 2 2 357 355 351 349 351 15 39 70 151 188 187 204 215 219 224 230 245 254 250 243 241 238 243